Simultaneous Nadir Overpasses (SNOs) Predictions

Prediction of SNOs between METOP-C and LANDSAT-8 Satellite Orbit:

Table of predicted SNOs for the next 14.0 days since TLE Epoch: 9/7/2024
Index Date (METOP-C) Time (METOP-C) Lat,Lon (METOP-C) SZA (METOP-C ) Date (LANDSAT-8) Time (LANDSAT-8) Lat,Lon (LANDSAT-8) SZA (LANDSAT-8 ) Distance(km) Time Diff (sec)
1 09/09/2024 06:34:29 81.08, 120.54 78.05 09/09/2024 06:35:42 81.08, 120.49 78.08 0.91 73
2 09/09/2024 07:25:08 -81.10, -71.60 101.87 09/09/2024 07:25:08 -81.10, -71.57 101.87 0.62 0
3 09/09/2024 08:15:32 81.27, 102.36 78.98 09/09/2024 08:14:18 81.44, 102.21 79.04 18.77 74
4 09/12/2024 02:08:55 81.08,-173.10 79.14 09/12/2024 02:09:55 81.09,-172.96 79.19 2.54 60
5 09/12/2024 02:59:33 -81.11, -4.86 100.74 09/12/2024 02:59:21 -81.11, -5.00 100.76 2.47 12
6 09/14/2024 21:43:20 81.09,-106.60 80.25 09/14/2024 21:44:07 81.08,-106.67 80.26 1.53 47
7 09/14/2024 22:33:59 -81.11, 61.29 99.67 09/14/2024 22:33:33 -81.10, 61.31 99.68 0.52 26
8 09/17/2024 17:17:43 81.10, -39.95 81.39 09/17/2024 17:18:15 81.10, -39.92 81.41 0.58 32
9 09/17/2024 18:08:22 -81.12, 127.95 98.53 09/17/2024 18:07:41 -81.12, 128.07 98.53 2.18 41
10 09/20/2024 12:52:07 81.10, 26.47 82.51 09/20/2024 12:52:23 81.10, 26.57 82.53 1.73 16



Historial Predications of SNOs between METOP-C and LANDSAT-8
